Delhi Cantonment, India

9:10 PM IST on January 22, 2017 (GMT +0530)
Indira Gandhi International

Weather History for VIDP - October, 2012

Change the Weather History Date:

Thursday, October 11, 2012

  Actual Average Record
Temperature  
Mean Temperature 80 °F -  
Max Temperature 91 °F 85 °F 98 °F (1999)
Min Temperature 68 °F 63 °F 64 °F (2007)
Cooling Degree Days 14    
Growing Degree Days 30 (Base 50)    
Moisture  
Dew Point 60 °F    
Average Humidity 54    
Maximum Humidity 83    
Minimum Humidity 28    
Precipitation  
Precipitation 0.00 in - - ()
Sea Level Pressure  
Sea Level Pressure 29.85 in    
Wind  
Wind Speed 3 mph ()    
Max Wind Speed 14 mph    
Max Gust Speed -    
Visibility 1.6 miles    
Events      
Averages and records for this station are not official NWS values.
T = Trace of Precipitation, MM = Missing Value Source: Averaged Metar Reports

Daily Weather History Graph

Daily Weather History Graph

Search for Another Location

Airport or City:

Trip Planner

Search our weather history database for the weather conditions in past years. The results will help you decide how hot, cold, wet, or windy it might be!

Date:

Astronomy

Oct. 11, 2012 Rise Set
Actual Time 6:20 AM IST 5:56 PM IST
Civil Twilight 5:56 AM IST 6:19 PM IST
Nautical Twilight 5:28 AM IST 6:47 PM IST
Astronomical Twilight 5:01 AM IST 7:14 PM IST
Moon 1:50 AM IST (10/11) 2:58 PM IST (10/11)
Length of Visible Light 12h 23m
Length of Day
11h 36m
Waning Crescent, 22% of the Moon is Illuminated
Oct 11
Waning Crescent
Oct 15
New
Oct 22
First Quarter
Oct 30
Full
Nov 7
Last Quarter

Hourly Weather History & Observations

Time (IST) Temp. Heat Index Dew Point Humidity Pressure Visibility Wind Dir Wind Speed Gust Speed Precip Events Conditions
12:00 AM 77.0 °F - 62.6 °F 61% 29.86 in 1.1 mi Calm Calm - N/A   Smoke
12:30 AM 77.0 °F - 62.6 °F 61% 29.86 in 1.1 mi Calm Calm - N/A   Smoke
1:00 AM 75.2 °F - 62.6 °F 65% 29.86 in 1.1 mi Calm Calm - N/A   Smoke
1:30 AM 75.2 °F - 64.4 °F 69% 29.86 in 1.1 mi Calm Calm - N/A   Smoke
2:00 AM 73.4 °F - 64.4 °F 73% 29.86 in 1.1 mi Calm Calm - N/A   Smoke
2:30 AM 73.4 °F - 64.4 °F 73% 29.86 in 1.1 mi Calm Calm - N/A   Smoke
3:00 AM 73.4 °F - 64.4 °F 73% 29.86 in 1.1 mi Calm Calm - N/A   Smoke
3:30 AM 69.8 °F - 64.4 °F 83% 29.86 in 1.1 mi Calm Calm - N/A   Mist
4:00 AM 71.6 °F - 62.6 °F 73% 29.86 in 1.1 mi Calm Calm - N/A   Smoke
4:30 AM 71.6 °F - 62.6 °F 73% 29.86 in 1.0 mi Calm Calm - N/A   Smoke
5:00 AM 69.8 °F - 62.6 °F 78% 29.86 in 1.0 mi Calm Calm - N/A   Mist
5:30 AM 68.0 °F - 62.6 °F 83% 29.86 in 1.1 mi Calm Calm - N/A   Mist
6:00 AM 68.0 °F - 62.6 °F 83% 29.86 in 1.1 mi Calm Calm - N/A   Mist
6:30 AM 68.0 °F - 60.8 °F 78% 29.86 in 1.1 mi Calm Calm - N/A   Mist
7:00 AM 69.8 °F - 60.8 °F 73% 29.86 in 1.0 mi Calm Calm - N/A   Smoke
8:00 AM 71.6 °F - 64.4 °F 78% 29.89 in 1.1 mi West 4.6 mph - N/A   Smoke
8:30 AM 73.4 °F - 60.8 °F 65% 29.92 in 1.4 mi WSW 4.6 mph - N/A   Haze
9:00 AM 73.4 °F - 60.8 °F 65% 29.92 in 1.4 mi WSW 4.6 mph - N/A   Haze
9:30 AM 78.8 °F - 62.6 °F 57% 29.92 in 1.7 mi WSW 4.6 mph - N/A   Haze
10:00 AM 80.6 °F 81.8 °F 62.6 °F 54% 29.92 in 1.7 mi WSW 4.6 mph - N/A   Haze
11:00 AM 84.2 °F 83.8 °F 59.0 °F 42% 29.89 in 1.9 mi WNW 5.8 mph - N/A   Haze
11:30 AM 86.0 °F 86.6 °F 62.6 °F 45% 29.89 in 1.9 mi West 5.8 mph - N/A   Haze
12:00 PM 87.8 °F 87.6 °F 60.8 °F 40% 29.89 in 1.9 mi West 6.9 mph - N/A   Haze
12:30 PM 87.8 °F 87.1 °F 59.0 °F 38% 29.86 in 2.2 mi NW 6.9 mph - N/A   Haze
1:00 PM 89.6 °F 88.1 °F 57.2 °F 33% 29.86 in 2.2 mi NW 6.9 mph - N/A   Haze
1:30 PM 89.6 °F 87.7 °F 55.4 °F 31% 29.83 in 2.2 mi WNW 8.1 mph - N/A   Haze
2:00 PM 91.4 °F 89.4 °F 55.4 °F 29% 29.83 in 2.2 mi WNW 10.4 mph - N/A   Haze
2:30 PM 91.4 °F 89.1 °F 53.6 °F 28% 29.83 in 2.2 mi WNW 11.5 mph - N/A   Haze
3:00 PM 91.4 °F 89.1 °F 53.6 °F 28% 29.80 in 2.5 mi NW 13.8 mph - N/A   Haze
3:30 PM 91.4 °F 89.1 °F 53.6 °F 28% 29.80 in 2.5 mi NW 12.7 mph - N/A   Haze
4:00 PM 89.6 °F 87.3 °F 53.6 °F 29% 29.80 in 2.5 mi NW 13.8 mph - N/A   Haze
4:30 PM 89.6 °F 87.3 °F 53.6 °F 29% 29.80 in 2.5 mi NW 11.5 mph - N/A   Haze
5:00 PM 89.6 °F 87.3 °F 53.6 °F 29% 29.80 in 2.5 mi NW 11.5 mph - N/A   Haze
5:30 PM 87.8 °F 86.1 °F 55.4 °F 33% 29.80 in 2.5 mi NW 11.5 mph - N/A   Haze
6:00 PM 86.0 °F 84.9 °F 57.2 °F 37% 29.80 in 2.2 mi NNW 6.9 mph - N/A   Haze
6:30 PM 86.0 °F 84.9 °F 57.2 °F 37% 29.80 in 2.2 mi NW 4.6 mph - N/A   Haze
7:00 PM 84.2 °F 83.5 °F 57.2 °F 40% 29.80 in - WNW 3.5 mph - N/A   Haze
7:30 PM 82.4 °F 82.0 °F 57.2 °F 42% 29.80 in - Calm Calm - N/A   Haze
8:30 PM 80.6 °F 81.5 °F 60.8 °F 51% 29.83 in 1.2 mi NW 4.6 mph - N/A   Haze
9:00 PM 80.6 °F 81.5 °F 60.8 °F 51% 29.83 in 1.2 mi NNW 5.8 mph - N/A   Haze
9:30 PM 80.6 °F 81.5 °F 60.8 °F 51% 29.83 in 1.2 mi Calm Calm - N/A   Haze
10:00 PM 78.8 °F - 59.0 °F 51% 29.83 in 1.2 mi Calm Calm - N/A   Haze
10:30 PM 77.0 °F - 59.0 °F 54% 29.83 in 1.2 mi Calm Calm - N/A   Smoke
11:00 PM 75.2 °F - 59.0 °F 57% 29.83 in 1.2 mi Calm Calm - N/A   Smoke
11:30 PM 75.2 °F - 60.8 °F 61% 29.83 in 1.2 mi Calm Calm - N/A   Smoke